sat.trackr.live / text

‹ back to catalog

STARLINK-30864

NORAD 58243 · 2023-171P

PAYLOAD ACTIVE UNKNOWN

§ Identity

Operator
Country
US
Launch date
2023-11-08
Launch site
AFETR
Launch vehicle
Mass (kg)
RCS (m²)

Purposes: comms

External: N2YO · Heavens-Above · Gunter

§ Orbital elements

Epoch: 2026-09-20T06:40:36.173280Z

Period
94.27 min
Inclination
43.0043°
Eccentricity
0.0001203
Mean motion
15.27575837 rev/d
Perigee alt
482.2 km
Apogee alt
483.9 km
Semi-major
6,861.2 km
B*
2.3830e-5
RAAN
266.3591°
Arg perigee
265.1821°
Mean anomaly
94.8893°
Rev number
15,939

§ Raw data

STARLINK-308641 58243U 23171P   26263.27819645  .00000394  00000+0  23830-4 0  99922 58243  43.0043 266.3591 0001203 265.1821  94.8893 15.27575837159399

JSON: /api/v1/satellites/58243 · /tle

For live sub-satellite position, see the globe view (requires WebGL).

§ Visibility from observer

Set your observer location to see the next 7 days of passes ≥ 10°. The values pass through the URL so the page stays shareable.

No JS? Fill the form by hand. The geolocation button needs JavaScript.